TimePDT,TemperatureF,Dew PointF,Humidity,Sea Level PressureIn,VisibilityMPH,Wind Direction,Wind SpeedMPH,Gust SpeedMPH,PrecipitationIn,Events,Conditions,WindDirDegrees,DateUTC
12:15 AM,48.2,41.0,76,30.10,10.0,Calm,Calm,-,N/A,,Partly Cloudy,0,2014-04-21 07:15:00
12:35 AM,48.2,41.0,76,30.10,10.0,Calm,Calm,-,N/A,,Clear,0,2014-04-21 07:35:00
12:55 AM,48.2,41.0,76,30.10,10.0,Calm,Calm,-,N/A,,Clear,0,2014-04-21 07:55:00
1:15 AM,46.4,41.0,81,30.10,10.0,Calm,Calm,-,N/A,,Clear,0,2014-04-21 08:15:00
1:35 AM,46.4,41.0,81,30.09,10.0,Calm,Calm,-,N/A,,Clear,0,2014-04-21 08:35:00
1:55 AM,46.4,41.0,81,30.08,10.0,Calm,Calm,-,N/A,,Clear,0,2014-04-21 08:55:00
2:15 AM,46.4,41.0,81,30.08,10.0,Calm,Calm,-,N/A,,Partly Cloudy,0,2014-04-21 09:15:00
2:35 AM,46.4,41.0,81,30.07,10.0,Calm,Calm,-,N/A,,Scattered Clouds,0,2014-04-21 09:35:00
2:55 AM,46.4,41.0,81,30.08,10.0,Calm,Calm,-,N/A,,Overcast,0,2014-04-21 09:55:00
3:15 AM,46.4,41.0,81,30.07,10.0,Calm,Calm,-,N/A,,Mostly Cloudy,0,2014-04-21 10:15:00
3:35 AM,46.4,41.0,81,30.08,10.0,Calm,Calm,-,N/A,,Mostly Cloudy,0,2014-04-21 10:35:00
3:55 AM,44.6,41.0,87,30.08,10.0,Calm,Calm,-,N/A,,Mostly Cloudy,0,2014-04-21 10:55:00
4:15 AM,44.6,41.0,87,30.08,10.0,Calm,Calm,-,N/A,,Overcast,0,2014-04-21 11:15:00
4:35 AM,44.6,41.0,87,30.07,10.0,Calm,Calm,-,N/A,,Overcast,0,2014-04-21 11:35:00
4:55 AM,44.6,41.0,87,30.07,10.0,Calm,Calm,-,N/A,,Mostly Cloudy,0,2014-04-21 11:55:00
5:15 AM,44.6,41.0,87,30.06,10.0,Calm,Calm,-,N/A,,Mostly Cloudy,0,2014-04-21 12:15:00
5:35 AM,44.6,41.0,87,30.06,10.0,Calm,Calm,-,N/A,,Partly Cloudy,0,2014-04-21 12:35:00
5:55 AM,44.6,41.0,87,30.06,10.0,Calm,Calm,-,N/A,,Clear,0,2014-04-21 12:55:00
6:35 AM,44.6,42.8,93,30.07,10.0,Calm,Calm,-,N/A,,Clear,0,2014-04-21 13:35:00
6:55 AM,46.4,44.6,93,30.07,10.0,Calm,Calm,-,N/A,,Clear,0,2014-04-21 13:55:00
7:15 AM,48.2,44.6,87,30.07,10.0,Calm,Calm,-,N/A,,Clear,0,2014-04-21 14:15:00
7:35 AM,51.8,44.6,76,30.07,10.0,Calm,Calm,-,N/A,,Clear,0,2014-04-21 14:35:00
7:55 AM,55.4,46.4,72,30.07,10.0,Calm,Calm,-,N/A,,Clear,0,2014-04-21 14:55:00
8:15 AM,59.0,50.0,72,30.07,10.0,Calm,Calm,-,N/A,,Clear,0,2014-04-21 15:15:00
8:35 AM,62.6,46.4,55,30.07,10.0,Calm,Calm,-,N/A,,Clear,0,2014-04-21 15:35:00
8:55 AM,66.2,42.8,43,30.07,10.0,South,3.5,-,N/A,,Clear,190,2014-04-21 15:55:00
9:15 AM,66.2,42.8,43,30.08,10.0,SSW,3.5,-,N/A,,Clear,200,2014-04-21 16:15:00
9:35 AM,66.2,41.0,40,30.08,10.0,South,4.6,-,N/A,,Clear,190,2014-04-21 16:35:00
9:55 AM,68.0,42.8,40,30.08,10.0,South,4.6,-,N/A,,Clear,180,2014-04-21 16:55:00
10:15 AM,68.0,42.8,40,30.08,10.0,South,4.6,-,N/A,,Clear,190,2014-04-21 17:15:00
10:55 AM,68.0,41.0,37,30.08,10.0,South,5.8,-,N/A,,Clear,190,2014-04-21 17:55:00
11:15 AM,71.6,42.8,35,30.08,10.0,SE,5.8,-,N/A,,Clear,140,2014-04-21 18:15:00
11:35 AM,71.6,41.0,33,30.08,10.0,SSE,3.5,-,N/A,,Clear,150,2014-04-21 18:35:00
11:55 AM,71.6,41.0,33,30.08,10.0,South,4.6,-,N/A,,Clear,190,2014-04-21 18:55:00
12:15 PM,73.4,41.0,31,30.08,10.0,SSE,4.6,-,N/A,,Clear,160,2014-04-21 19:15:00
12:35 PM,71.6,41.0,33,30.07,10.0,SSW,4.6,-,N/A,,Clear,200,2014-04-21 19:35:00
12:55 PM,73.4,41.0,31,30.07,10.0,SW,4.6,-,N/A,,Clear,220,2014-04-21 19:55:00
1:15 PM,73.4,41.0,31,30.07,10.0,SW,5.8,-,N/A,,Clear,230,2014-04-21 20:15:00
1:35 PM,73.4,41.0,31,30.06,10.0,SW,3.5,-,N/A,,Clear,230,2014-04-21 20:35:00
1:55 PM,73.4,39.2,29,30.05,10.0,Calm,Calm,-,N/A,,Clear,0,2014-04-21 20:55:00
2:15 PM,73.4,39.2,29,30.05,10.0,WSW,5.8,-,N/A,,Clear,250,2014-04-21 21:15:00
2:35 PM,71.6,37.4,29,30.05,10.0,WSW,4.6,-,N/A,,Clear,250,2014-04-21 21:35:00
2:55 PM,71.6,37.4,29,30.05,10.0,WSW,3.5,-,N/A,,Clear,240,2014-04-21 21:55:00
3:15 PM,71.6,37.4,29,30.05,10.0,SW,4.6,-,N/A,,Clear,230,2014-04-21 22:15:00
3:55 PM,71.6,41.0,33,30.04,10.0,Calm,Calm,-,N/A,,Clear,0,2014-04-21 22:55:00
4:15 PM,68.0,39.2,35,30.02,10.0,Calm,Calm,-,N/A,,Clear,0,2014-04-21 23:15:00
4:35 PM,68.0,41.0,37,30.01,10.0,Calm,Calm,-,N/A,,Partly Cloudy,0,2014-04-21 23:35:00
4:55 PM,68.0,41.0,37,30.00,10.0,East,4.6,-,N/A,,Clear,90,2014-04-21 23:55:00
5:15 PM,68.0,39.2,35,29.98,10.0,NE,4.6,-,N/A,,Partly Cloudy,40,2014-04-22 00:15:00
5:35 PM,68.0,39.2,35,29.96,10.0,North,3.5,-,N/A,,Partly Cloudy,360,2014-04-22 00:35:00
5:55 PM,68.0,39.2,35,29.96,10.0,Calm,Calm,-,N/A,,Mostly Cloudy,0,2014-04-22 00:55:00
6:15 PM,68.0,37.4,33,29.96,10.0,Calm,Calm,-,N/A,,Scattered Clouds,0,2014-04-22 01:15:00
6:35 PM,64.4,39.2,40,29.95,10.0,Calm,Calm,-,N/A,,Mostly Cloudy,0,2014-04-22 01:35:00
6:55 PM,64.4,42.8,45,29.95,10.0,West,4.6,-,N/A,,Mostly Cloudy,260,2014-04-22 01:55:00
7:15 PM,64.4,39.2,40,29.95,10.0,WNW,4.6,-,N/A,,Partly Cloudy,290,2014-04-22 02:15:00
7:35 PM,64.4,39.2,40,29.96,10.0,West,8.1,-,N/A,,Clear,280,2014-04-22 02:35:00
7:55 PM,60.8,39.2,45,29.97,10.0,NW,8.1,-,N/A,,Clear,310,2014-04-22 02:55:00
8:15 PM,59.0,37.4,45,29.97,10.0,NW,9.2,-,N/A,,Clear,310,2014-04-22 03:15:00
8:35 PM,59.0,37.4,45,29.96,10.0,NNW,6.9,-,N/A,,Partly Cloudy,340,2014-04-22 03:35:00
8:55 PM,57.2,32.0,38,29.97,10.0,NW,5.8,-,N/A,,Scattered Clouds,320,2014-04-22 03:55:00
9:15 PM,57.2,24.8,29,29.97,10.0,WNW,5.8,-,N/A,,Scattered Clouds,300,2014-04-22 04:15:00
9:35 PM,59.0,24.8,27,29.97,10.0,NW,5.8,-,N/A,,Mostly Cloudy,320,2014-04-22 04:35:00
9:55 PM,57.2,24.8,29,29.97,10.0,WNW,3.5,-,N/A,,Overcast,290,2014-04-22 04:55:00
10:15 PM,57.2,24.8,29,29.98,10.0,WNW,9.2,-,N/A,,Mostly Cloudy,300,2014-04-22 05:15:00
10:35 PM,55.4,26.6,33,29.97,10.0,North,3.5,-,N/A,,Overcast,10,2014-04-22 05:35:00
10:55 PM,55.4,24.8,31,29.96,10.0,NNW,3.5,-,N/A,,Mostly Cloudy,330,2014-04-22 05:55:00
11:15 PM,55.4,26.6,33,29.95,10.0,NW,3.5,-,N/A,,Mostly Cloudy,320,2014-04-22 06:15:00
11:35 PM,55.4,24.8,31,29.95,10.0,Calm,Calm,-,N/A,,Overcast,0,2014-04-22 06:35:00
11:55 PM,53.6,26.6,35,29.93,10.0,Calm,Calm,-,N/A,,Overcast,0,2014-04-22 06:55:00